FENGYUN 1C DEB, 31743

Orbit data source: Space-Track

FENGYUN 1C DEB, 31743 is space debris in SSO originally from a launch on Mon, 10 May 1999 UTC launched from the Taiyaun Space Center, China (TSC). Fengyun 1C debris stems from the Chinese weather satellite Fengyun-1C, which was intentionally destroyed by a Chinese anti-satellite missile in 2007. This event dramatically increased the amount of space debris, with thousands of trackable fragments posing hazards to satellites and human spaceflight. The Fengyun 1C debris cloud has become a focal point in discussions about space sustainability and the need for international regulations to prevent the creation of new debris.

Loading next visibility...
Identifier
31743, 1999-025CES
Orbit
SSO
Country
Flag of CNCN / PRC
Related business
Manufacturer
Unknown
Mission
Spacecraft
Bus & Motor
Unknown
Mass
Unknown
Launch date (UTC)
1999-05-10 (26 years ago)
Launch vehicle
Unknown
Launch site
Taiyaun Space Center, China (TSC)
Object type
Payload
Rocket body
Debris
Shape & HBR
Unknown shape, 0.1 m
Radar Cross Section
Small (<0.1 m²)

Expand to show TLE details & history
Last TLE update: 2 days ago

TLE from 2 days ago
0 FENGYUN 1C DEB
1 31743U 99025CES 25302.60121618  .00007262  00000-0  27714-2 0  9990
2 31743  99.1359 228.2563 0039968 349.8947 136.5661 14.30644123950092
Epoch: 2025-10-29T14:25Z
TLE epoch observation values (Epoch: 2025-10-29T14:25:45.077Z)
Latitude
52.36497°
Longitude
165.61981°
Altitude
818.901 km
Speed
7.438 km/s
True Right ascension
04h 00m 55s
True Declination
52° 11' 60"
Sunlit
Object was in full shadow at epoch
Visualization orbit readout
Latitude
Unknown
Longitude
Unknown
Altitude
Unknown
Speed
Unknown
Apparent Right ascension
Unknown
Apparent Declination
Unknown
Sunlit
N/A
Visualization observer readout
Local Sidereal Time
06:07:36
Azimuth
Unknown
Elevation
Unknown
Doppler factor
Unknown
Orbital elements
Apogee altitude
815.38 km
Perigee altitude
758.107 km
Semi-major axis
7,164.881 km
Eccentricity
0.004
Inclination
99.1359°
RAAN
228.2563°
Arg. of periapsis
349.8947°
True anomaly
136.87984°
Mean anomaly
136.5661°
Eccentric anomaly
136.72309°
Mean motion
3.57874 °/min
Orbital period
100.59 mins
BSTAR
0.0027714
Loading maneuver chart data...
Computing Atmospheric mass density...

Documentation

Showing up to 5 results
|